Regional Weather Roundup
Issued by NWS

Home | Current Version | Previous Version | Text Only | Print | Product List | Glossary Off
Versions: 1 2 3 4 5 6 7 8 9 10 11 12 13 14 15 16 17 18 19 20 21 22 23 24 25 26 27 28 29 30 31 32 33 34 35 36 37 38 39 40 41 42 43 44 45 46 47 48 49 50

000
ASUS43 KLOT 252103
RWRIL

ILLINOIS REGIONAL WEATHER ROUNDUP
NATIONAL WEATHER SERVICE CHICAGO/ROMEOVILLE IL
400 PM CDT THU MAY 25 2017

NOTE: "FAIR" INDICATES FEW OR NO CLOUDS BELOW 12,000 FEET WITH NO
SIGNIFICANT WEATHER AND/OR OBSTRUCTIONS TO VISIBILITY.

* THESE STATIONS ARE NOT UNDER NWS QUALITY CONTROL. THEY ALSO MAY NOT
  REPORT WEATHER SUCH AS PRECIPITATION OR FOG.

ILZ001-002-007-009-015-016-024-252200-
NORTHWEST ILLINOIS

CITY           SKY/WX    TMP DP  RH WIND       PRES   REMARKS
MOLINE         MOSUNNY   71  51  49 SE3       29.66
STERLING*      PTSUNNY   67  56  67 CALM      29.69S
$$

ILZ003-004-008-010-011-017-018-252200-
NORTH CENTRAL ILLINOIS

CITY           SKY/WX    TMP DP  RH WIND       PRES   REMARKS
ROCKFORD       MOSUNNY   70  54  56 VRB7      29.68F
FREEPORT*      MOSUNNY   68  55  62 E3        29.70S
ROCHELLE*      CLOUDY    65  55  68 N8        29.69S
DE KALB*       CLOUDY    65  55  70 NW8       29.68S
$$

ILZ005-006-012>014-019>023-252200-
NORTHEAST ILLINOIS

CITY           SKY/WX    TMP DP  RH WIND       PRES   REMARKS
CHICAGO-OHARE  CLOUDY    68  52  56 N9        29.64S
CHICAGO-MIDWAY PTSUNNY   68  54  60 N9        29.64S
AURORA         CLOUDY    67  56  67 NW12      29.67R
LANSING*       MOSUNNY   64  56  73 NE14G20   29.65S
WAUKEGAN       MOSUNNY   67  54  63 NE12      29.64S
DUPAGE AIRPORT PTSUNNY   67  57  70 W5        29.65R
WHEELING       CLOUDY    64  53  67 E9        29.66R
NORTHERLY ISL    N/A     58  50  75 N14         N/A
$$

LMZ740>746-252200-
SOUTHERN LAKE MICHIGAN

STATION/POSITION SKY/WX   TEMP    WIND        PRES    VSBY  WAVE
                          AIR SEA DIR/SP/G                  HT/PER
                          (F)     (DEG/KT/KT) (MB)    (MI)  (FT/S)
SOUTHERN BUOY              46 45  340/ 14/ 14 1003.4          3/ 5
WILMETTE HARBOR            50 52                N/A           4/ 4
HARRISON CRIB              52     330/ 10/ 10   N/A
BURNHAM HARBOR             59      10/  9/ 15   N/A
CALUMET HARBOR             58     350/  9/ 15 1003.7F
BURNS HARBOR               52     310/  8/ 10 1004.7F
MICHIGAN CITY              50     300/ 11/ 13   N/A
MICHIGAN CITY 6N           49 51  320/ 10/ 14   N/A           4/ 5
ST. JOSEPH                 51 55  330/ 12/ 16 1003.5R         3/ 5
$$

ILZ025>027-034>036-040-047-049-050-058-095>099-252200-
WEST-CENTRAL ILLINOIS

CITY           SKY/WX    TMP DP  RH WIND       PRES   REMARKS
QUINCY         MOSUNNY   72  52  49 SW3       29.69F
MACOMB*        MOSUNNY   70  54  55 SW7       29.71S
$$

ILZ028>032-037-038-041>044-048-051>054-059>061-252200-
CENTRAL ILLINOIS

CITY           SKY/WX    TMP DP  RH WIND       PRES   REMARKS
BLOOMINGTON    PTSUNNY   63  55  75 N8        29.71S
DECATUR        PTSUNNY   70  55  59 W9        29.69F
PEORIA         MOSUNNY   72  58  61 N6        29.68F
LACON*         MOSUNNY   64  56  74 NW6       29.70S
LINCOLN*       MOSUNNY   71  60  67 N5        29.69S
SPRINGFIELD    MOSUNNY   72  56  57 W8        29.69F
TAYLORVILLE    NOT AVBL
$$

ILZ033-039-045-046-055>057-062-063-252200-
EAST-CENTRAL ILLINOIS

CITY           SKY/WX    TMP DP  RH WIND       PRES   REMARKS
CHAMPAIGN      PTSUNNY   65  55  70 NW15      29.70R
MATTOON        MOSUNNY   68  59  73 N8        29.69F
$$

ILZ079-100>102-252200-
SOUTHWEST ILLINOIS

CITY           SKY/WX    TMP DP  RH WIND       PRES   REMARKS
BELLEVILLE     MOSUNNY   74  52  46 SW6       29.72S
CAHOKIA*       SUNNY     75  48  38 W5        29.70F
SPARTA*        MOSUNNY   73  51  45 W8        29.73S
$$

ILZ064>066-069>071-074>076-080>082-084>086-088>090-092>094-252200-
SOUTH-CENTRAL ILLINOIS

CITY           SKY/WX    TMP DP  RH WIND       PRES   REMARKS
CARBONDALE     MOSUNNY   74  51  44 SW12      29.72F
CAIRO*         SUNNY     76  51  41 SW8       29.74S
EFFINGHAM*     PTSUNNY   73  58  57 W10       29.71S
MT. VERNON       N/A     74  54  49 SW9       29.72S
SALEM*         PTSUNNY   74  54  49 W9        29.71S
$$

ILZ067-068-072-073-078-083-087-091-252200-
SOUTHEAST ILLINOIS

CITY           SKY/WX    TMP DP  RH WIND       PRES   REMARKS
LAWRENCEVILLE  PTSUNNY   72  58  61 NW15      29.69S
HARRISBURG*    PTSUNNY   74  55  51 W12       29.73S
ROBINSON*      PTSUNNY   67  58  72 NW12      29.70S
CARMI*         MOSUNNY   74  55  51 W10G20    29.71R
$$

ABBREVIATIONS USED IN REMARKS
   TC - TEMPERATURE IN CELSIUS
  WCI - WIND CHILL INDEX
   HX - HEAT INDEX
  VSB - VISIBILITY
$$




USA.gov is the U.S. government's official web portal to all federal, state and local government web resources and services.